Location: ???????
(55.4231°N, 38.5570°E)
Time: 14:11:19
(UTC+00:00)

Cosmos 1633 Rocket - Pass Details

Date: 05 August 2024
Orbit: 604 x 618 km, 82.5° (Epoch: 18 September)

Event Time Altitude Azimuth Distance (km) Brightness Sun altitude
Exits shadow 00:47:11 - 221° (SW) 2,080 5.1 -6.8°
Reaches altitude 10° 00:47:31 10° 222° (SW) 1,955 4.9 -6.8°
Maximum altitude 00:51:32 37° 291° (WNW) 951 3.8 -6.3°
Drops below altitude 10° 00:55:35 10° 359° (N) 1,967 6.3 -5.9°
Sets 00:57:58 0° 8° (N) 2,876 7.3 -5.7°
